Theta_e
288 288 288 288 288 288 288 287 287 287 286 286 285 285 284 284 284 284 284 284 284 284 284 284 283 284 284 284 284 283 283 283 283 283 283 283 283 283 283 283 283 283
288 288 288 288 288 288 288 287 287 287 286 286 285 285 285 284 284 284 284 284 284 284 283 283 283 283 283 283 283 283 283 283 283 283 283 283 282 282 282 282 282 282
288 288 288 288 288 287 287 287 287 287 286 286 285 285 285 284 284 284 284 284 283 283 283 282 283 282 282 283 282 282 282 282 282 282 282 282 282 282 282 281 282 281
287 287 287 287 287 287 287 287 287 286 286 286 285 285 284 284 284 284 283 283 283 283 282 282 282 282 282 282 282 282 282 282 282 282 282 282 281 281 281 281 281 281
287 287 287 287 287 287 287 287 287 286 285 285 284 284 284 283 283 283 283 283 282 282 282 282 281 281 281 281 281 281 281 281 281 281 281 281 281 280 280 280 280 280
287 286 286 286 286 286 287 287 286 285 284 284 283 283 283 283 283 282 282 282 282 282 281 281 281 281 281 281 281 281 281 281 280 280 280 280 280 280 279 279 279 279
286 286 286 286 286 286 286 286 285 284 284 283 282 282 282 282 282 282 282 281 281 281 281 281 281 281 281 280 280 280 280 280 280 280 280 279 279 279 279 278 278 278
286 286 286 286 286 286 285 285 284 283 282 282 282 281 281 281 281 281 280 280 280 280 280 280 280 280 280 280 280 279 279 279 279 279 278 278 278 278 277 277 277 277
286 286 286 286 286 285 284 284 283 283 282 282 281 281 281 281 280 280 280 280 279 279 279 279 279 279 279 279 279 278 278 278 278 278 277 277 277 276 276 275 275 275
286 286 286 285 285 285 284 283 283 282 282 281 281 281 281 281 280 280 279 279 279 279 279 278 278 278 278 278 278 278 277 277 277 277 276 276 275 275 275 274 274 274
286 286 285 285 285 284 283 283 282 282 281 281 281 281 280 280 279 279 279 279 278 278 278 278 278 278 278 278 277 277 277 277 277 277 277 276 275 275 274 273 273 273
286 286 285 285 284 284 283 282 282 281 281 281 280 280 280 279 279 279 278 278 278 278 277 277 277 277 277 277 277 277 277 277 277 277 276 276 275 274 274 273 273 273
286 285 285 285 284 283 283 282 282 282 281 281 280 279 279 279 278 278 278 278 277 277 277 277 277 277 277 276 276 276 276 276 275 275 274 274 273 273 273 272 272 272
285 285 285 284 284 284 283 283 282 282 281 280 280 279 279 278 278 278 278 277 277 277 277 276 276 276 276 276 275 275 274 274 273 272 272 272 272 272 272 271 271 271
285 284 284 284 284 284 284 283 282 281 281 280 279 279 278 278 278 277 277 277 277 277 276 276 276 276 275 275 274 273 272 272 271 271 271 271 271 271 271 271 271 271
284 284 283 283 283 284 284 283 282 281 280 279 279 278 278 277 277 277 277 277 277 276 276 276 275 275 274 273 273 272 271 271 271 271 271 271 271 271 271 271 271 271
284 283 283 283 283 283 283 282 281 280 279 279 278 278 277 277 277 277 276 276 276 276 275 275 275 274 274 273 273 272 270 270 271 271 271 271 270 270 270 270 270 270
283 283 283 283 282 282 282 281 280 279 278 278 277 277 277 276 276 276 276 275 275 275 275 274 274 274 273 273 273 271 269 270 271 271 270 270 270 270 270 270 269 269
283 282 282 281 281 281 281 280 279 278 277 277 276 276 276 276 275 275 275 275 275 274 274 273 273 273 272 272 272 270 269 270 271 270 270 270 270 269 269 269 268 268
282 281 281 280 280 280 280 279 278 277 277 276 276 275 275 275 275 274 274 274 274 273 273 273 273 273 272 271 271 269 269 270 270 270 270 269 268 268 268 268 268 268
281 280 280 280 279 279 279 278 277 277 276 276 275 275 274 274 274 274 273 273 273 272 272 272 272 272 271 270 270 268 268 270 270 269 268 268 268 268 268 268 268 268
280 279 279 279 278 278 278 277 276 276 275 275 274 274 274 273 273 273 273 272 272 272 271 271 272 272 270 270 269 268 268 269 268 268 268 268 268 268 268 268 268 268
279 279 278 278 277 277 277 276 275 275 274 274 274 273 273 273 272 272 272 272 271 271 271 271 272 271 270 269 269 268 267 268 268 268 268 268 268 268 268 268 268 268
279 278 277 277 276 276 276 275 275 274 274 273 273 272 272 272 272 272 272 271 271 271 270 271 271 271 269 269 269 268 267 268 268 268 268 268 268 268 269 269 269 269
278 277 277 276 276 276 275 275 274 273 273 272 272 272 271 271 271 271 271 271 270 270 270 271 271 271 269 269 268 268 267 268 268 268 268 269 269 269 269 269 269 270
277 276 276 275 275 275 274 274 273 273 272 271 271 271 271 271 271 271 271 271 270 270 271 270 270 270 269 268 268 267 267 268 269 269 269 269 269 269 270 270 270 271
Wind_Speed
24 24 24 24 24 23 23 23 22 22 22 22 22 21 20 20 20 20 20 20 21 21 21 21 21 21 21 21 22 21 21 21 21 21 20 20 20 19 19 18 17 17
22 21 21 21 21 21 20 20 20 20 21 21 20 20 20 19 19 19 20 20 21 21 21 22 22 22 22 22 22 22 22 22 22 22 22 22 22 21 21 20 19 19
19 18 19 19 18 18 18 18 19 19 19 20 20 20 20 20 20 20 20 21 21 22 22 22 23 23 23 23 23 23 23 23 23 23 23 23 23 23 22 21 21 20
16 15 15 15 15 15 15 15 17 17 18 19 19 19 19 19 19 20 20 21 22 23 23 23 23 23 23 23 24 24 24 24 24 24 24 24 24 23 23 23 23 22
13 13 12 12 12 12 13 14 15 16 17 17 18 17 18 18 19 20 20 21 22 23 23 24 24 24 25 25 25 26 26 26 25 25 25 25 25 24 24 24 24 24
11 10 9 10 10 10 12 14 15 15 16 17 17 16 17 18 18 19 20 21 22 23 23 24 24 25 25 25 26 26 26 27 27 27 27 27 26 26 25 25 24 24
9 8 7 7 8 10 12 13 13 14 15 15 15 15 16 16 17 17 18 19 20 21 22 22 23 24 24 25 25 26 26 26 27 27 27 27 27 28 27 26 26 25
6 5 6 6 7 9 10 12 13 14 15 15 16 17 18 18 19 19 19 20 20 21 21 22 23 24 24 25 26 26 27 27 27 27 27 28 28 28 27 26 26 25
4 3 3 5 7 9 11 13 15 16 17 17 18 19 19 20 21 21 21 22 22 23 23 24 25 25 26 26 27 27 27 27 27 27 27 27 27 27 27 26 25 24
2 2 3 6 9 11 13 14 15 16 16 17 17 18 19 20 21 22 22 23 24 24 25 25 25 26 26 27 26 27 27 27 27 27 27 27 26 26 26 25 25 24
2 2 4 7 9 11 12 13 14 15 16 17 18 19 20 21 21 22 23 23 24 24 24 24 24 25 26 26 26 26 26 27 27 28 27 27 27 27 26 25 25 24
1 2 5 7 9 11 13 14 16 17 18 20 20 21 22 23 23 24 24 24 24 24 25 25 25 25 26 26 26 26 26 27 27 27 28 28 28 28 27 26 26 25
0 2 5 7 10 12 14 16 18 19 20 21 22 22 23 24 24 24 24 24 25 25 25 25 25 26 26 25 26 26 27 27 27 28 28 28 28 28 26 25 25 25
1 3 6 8 11 13 15 17 18 19 20 21 21 22 23 23 24 24 24 24 24 24 24 24 24 25 25 25 26 26 26 26 26 26 26 26 26 26 23 22 22 21
1 3 5 8 10 12 14 16 18 19 20 20 21 22 23 23 23 23 24 24 24 24 25 25 24 24 24 24 24 24 24 24 25 25 23 22 22 21 20 19 19 17
2 3 5 7 10 12 14 16 17 18 19 20 21 22 22 23 23 23 23 24 24 24 25 25 24 24 23 22 21 20 21 22 22 21 19 18 19 19 19 18 17 17
2 4 6 8 10 12 14 16 17 18 19 20 21 21 22 22 22 22 22 23 23 24 25 25 24 24 23 22 20 19 18 19 19 18 17 17 17 18 19 19 18 17
4 5 7 9 11 13 15 16 17 18 19 20 21 21 21 21 22 22 22 23 23 24 24 24 24 23 22 21 21 19 17 17 18 18 18 18 17 18 19 18 18 17
5 6 8 10 11 13 15 16 17 18 19 20 21 21 21 21 21 22 22 23 23 24 25 25 24 23 22 21 21 19 17 17 18 18 18 18 17 18 18 17 17 18
6 8 9 11 12 14 15 16 18 18 19 20 21 21 21 22 22 23 23 23 24 24 25 25 24 23 22 21 20 18 17 17 18 18 18 17 17 17 17 16 16 17
7 8 10 11 13 14 15 17 18 18 19 20 21 21 21 22 22 23 23 24 24 24 25 25 24 22 22 21 19 17 17 17 17 16 16 16 16 16 17 16 16 18
8 9 11 12 13 14 16 17 18 18 19 20 21 21 21 22 22 23 24 24 24 24 25 25 24 22 21 20 18 16 17 17 16 15 16 16 16 17 17 17 16 17
9 10 11 12 13 15 16 17 17 18 19 20 21 21 22 22 23 24 24 25 24 24 24 26 25 23 21 20 17 15 16 17 16 17 17 17 18 20 19 16 16 18
10 11 12 13 14 15 17 17 18 18 19 19 20 22 23 23 24 25 25 24 24 23 24 25 26 23 20 19 16 14 16 18 18 18 19 20 21 20 17 17 19 23
11 11 13 14 15 16 17 18 18 19 19 20 20 22 23 24 24 26 26 25 24 23 23 23 24 23 20 18 16 15 16 19 19 20 21 21 20 21 22 24 25 26
11 12 13 14 16 17 17 17 18 19 19 20 21 22 23 24 24 25 26 25 24 23 22 21 22 22 20 17 16 16 18 19 19 20 22 22 23 26 29 29 27 27
Wind_Direction
88 85 82 79 75 71 67 63 58 55 52 49 46 43 39 35 31 28 27 25 23 21 19 17 15 13 12 10 9 8 8 7 6 4 4 2 0 359 357 355 353 349
88 84 79 76 72 68 64 60 55 51 48 44 41 37 33 29 25 22 20 18 17 16 14 12 10 9 7 6 5 3 2 2 360 358 357 357 356 354 353 351 349 346
88 83 77 73 69 65 60 54 50 45 40 36 32 28 24 20 18 15 14 13 12 11 9 7 6 4 3 2 0 360 358 357 356 353 353 353 352 350 349 347 345 343
90 83 77 72 67 61 54 47 43 38 32 28 25 21 17 14 12 10 9 7 6 5 4 2 1 360 359 358 357 356 355 354 353 350 349 349 348 346 345 343 341 339
94 86 78 71 64 56 46 39 36 30 26 23 20 15 11 9 7 5 5 3 2 1 360 358 357 356 355 355 354 353 352 351 350 349 347 346 345 344 342 340 337 334
100 90 79 67 56 44 32 29 27 22 19 17 12 8 7 4 3 1 0 359 358 356 355 353 353 352 352 351 350 350 349 348 346 345 344 343 341 340 339 337 334 331
105 92 75 56 41 30 23 21 18 14 13 11 6 3 3 2 0 359 357 356 354 352 351 350 350 350 349 349 348 347 346 345 343 342 341 339 338 337 336 334 331 328
108 86 63 40 26 20 16 14 11 9 8 5 2 1 0 359 358 358 356 355 354 352 351 351 350 350 349 349 348 346 345 344 343 341 339 337 336 334 333 331 328 325
110 81 52 24 14 12 11 10 7 5 3 359 358 356 355 354 354 353 353 352 352 352 351 351 351 351 351 350 348 346 344 343 341 339 338 335 333 331 330 329 325 321
129 75 32 9 8 8 6 5 2 359 356 353 352 351 350 350 350 349 349 349 349 349 350 350 350 350 350 348 347 345 342 340 338 337 335 333 331 330 328 327 324 319
133 40 12 2 2 3 360 359 358 355 352 350 349 348 348 348 347 347 347 348 348 348 347 347 348 349 348 345 344 342 339 336 334 333 332 331 329 328 327 326 324 321
107 5 357 356 358 359 358 356 354 352 350 349 348 347 346 345 345 345 346 346 346 345 345 345 346 347 346 343 341 339 337 334 333 331 330 329 328 327 327 325 325 324
255 342 353 357 357 357 356 353 350 348 346 345 344 343 342 341 342 342 343 343 343 343 343 343 345 345 344 342 339 338 337 335 334 332 330 329 328 326 326 325 324 324
264 343 355 356 354 353 349 346 344 342 340 339 338 337 337 338 339 338 339 339 339 339 340 340 343 344 343 341 340 340 338 335 332 330 328 326 325 324 323 322 320 320
281 343 351 350 348 345 340 338 337 335 334 333 332 332 333 334 335 335 335 335 335 336 337 338 342 343 342 343 343 340 335 331 328 327 324 322 320 319 317 317 317 314
280 329 338 338 337 336 334 332 331 329 328 327 327 328 329 330 331 332 332 332 332 333 334 336 340 342 342 342 341 336 331 327 323 320 318 314 313 313 313 312 312 310
281 313 325 328 330 331 330 328 326 325 324 323 324 325 326 327 328 328 329 330 331 332 333 335 339 341 339 337 336 335 330 322 315 311 310 309 308 308 308 308 308 307
286 308 319 322 325 326 325 324 323 322 322 321 322 323 324 326 327 327 329 330 331 332 332 333 337 338 336 334 333 333 329 318 309 308 306 304 304 303 303 305 305 304
289 306 313 316 321 322 321 321 320 320 321 320 321 322 323 325 326 327 329 330 331 332 330 332 337 337 334 333 332 330 324 314 307 303 301 300 300 300 299 300 300 301
289 301 308 311 315 316 316 317 317 318 320 319 320 322 323 324 326 326 328 330 331 331 330 331 335 335 333 332 331 327 320 312 305 299 296 295 295 295 295 296 296 296
285 294 301 304 307 310 313 315 316 318 318 318 319 321 321 323 325 325 327 328 330 330 329 330 334 335 332 330 330 326 317 309 302 296 292 291 292 292 292 291 292 291
280 288 293 298 302 308 311 313 314 316 316 316 317 318 319 321 322 324 325 326 329 331 329 329 333 334 331 330 330 325 314 306 300 296 292 289 289 291 292 291 290 289
276 282 289 297 303 307 310 312 314 315 314 315 316 316 319 321 322 323 325 326 329 332 330 329 331 332 330 328 329 324 314 307 300 294 291 289 289 291 292 291 288 286
274 282 290 298 302 306 309 310 312 313 313 315 316 317 318 320 321 322 323 325 328 331 331 328 326 328 329 326 326 324 313 304 300 295 293 292 292 291 290 289 291 292
274 283 291 297 300 304 307 309 310 311 312 313 315 316 317 318 320 320 320 324 327 329 330 326 322 324 328 327 327 324 311 303 301 297 295 295 295 294 293 292 291 294
276 284 290 295 298 301 304 307 309 309 310 312 313 314 315 315 318 319 319 322 326 328 328 325 321 322 326 330 332 322 309 303 301 297 296 296 295 294 294 294 292 294